SCP
1 1 1 0 0 0 1 1 1 1 1 1 1 0 0 0 0 0 0 0 0 0 0 0 0 0 0 0 0 0 1 0 0 0 0 0 -0 0 -0 -0 0 0 -0
1 0 1 0 0 0 1 1 1 1 1 1 1 1 0 0 0 0 0 0 0 0 0 0 0 0 0 0 0 0 0 0 0 0 0 0 0 0 0 -0 -0 -0 -0
1 1 0 0 0 1 1 1 1 1 1 1 1 1 1 0 0 0 0 0 0 0 0 0 0 0 0 0 0 0 0 0 0 0 0 0 0 0 0 -0 -0 -0 -0
0 1 0 0 0 1 1 1 1 1 1 1 1 1 1 0 0 0 0 0 0 0 0 0 0 0 0 0 0 0 0 0 0 0 0 0 0 0 0 0 0 0 0
0 0 0 0 1 0 0 1 1 1 1 1 1 1 1 0 0 0 0 0 0 0 0 0 0 0 0 0 0 0 0 0 0 0 0 0 0 0 0 0 0 0 0
0 0 1 1 0 0 1 1 1 1 1 1 1 0 0 0 0 0 0 0 0 0 0 0 0 0 0 0 0 0 0 0 0 0 0 0 0 0 0 0 0 -0 -0
0 0 1 0 0 0 1 1 1 1 1 0 0 0 0 0 0 0 0 0 0 0 0 0 0 0 0 0 0 0 0 0 0 0 0 0 0 0 0 0 -0 -0 -0
1 1 0 0 0 1 1 1 1 0 0 0 0 0 0 0 0 0 0 0 0 0 0 0 0 0 0 0 0 0 0 0 0 0 0 0 0 0 0 0 -0 -0 0
1 0 0 0 1 1 1 1 0 0 0 0 0 0 0 0 0 0 0 0 0 0 0 0 0 0 0 0 0 0 0 0 0 0 0 0 0 0 0 -0 -0 0 0
1 1 0 1 1 0 1 0 0 0 0 0 0 0 0 0 0 0 0 0 0 0 0 0 0 0 0 0 0 0 0 0 0 0 0 0 0 0 0 -0 -0 0 0
1 1 1 1 0 0 0 0 0 0 0 0 0 0 0 0 0 0 0 0 0 0 0 0 0 0 0 0 0 0 0 0 0 0 0 0 0 0 0 0 -0 0 0
0 0 0 0 0 0 0 0 0 0 0 0 0 0 0 0 0 0 0 0 0 0 0 0 0 0 0 0 0 0 0 0 0 0 0 0 0 0 -0 -0 -0 -0 -0
1 1 1 0 0 0 0 0 0 0 0 0 0 0 0 0 0 -0 0 0 0 0 0 0 0 0 0 0 0 0 0 0 0 0 0 0 -0 0 -0 -0 -0 -0 -0
1 0 0 0 0 0 0 0 0 0 0 0 0 0 0 0 0 0 0 0 0 0 0 0 0 0 0 0 0 0 0 0 0 0 0 0 0 -0 -0 -0 -0 -0 -0
0 0 0 0 0 0 0 0 0 0 0 0 0 0 0 0 0 0 0 0 0 0 0 0 0 0 0 0 0 0 0 0 0 0 0 0 0 0 0 0 -0 -0 -0
0 0 0 0 0 0 0 0 0 0 0 0 0 0 0 0 -0 0 0 -0 0 0 0 0 0 0 0 0 0 0 0 0 0 0 0 -0 0 0 0 0 0 0 -0
0 0 0 0 0 0 0 0 0 0 0 0 0 0 0 0 -0 -0 -0 -0 0 0 0 0 0 0 0 0 0 0 0 0 0 0 -0 -0 -0 0 -0 -0 0 -0 -0
0 0 0 0 0 0 0 0 0 0 0 0 0 0 0 -0 0 -0 0 -0 0 0 0 0 0 0 0 0 0 0 0 0 0 0 -0 -0 -0 -0 0 0 0 0 0
0 0 0 0 0 0 0 0 0 0 0 0 0 0 0 0 0 0 0 0 0 0 0 0 0 0 0 0 0 0 0 0 0 0 0 -0 -0 0 0 0 -0 0 -0
0 0 0 0 0 0 0 0 0 0 -0 -0 0 0 0 -0 0 0 -0 0 0 0 0 0 0 0 0 0 0 0 0 0 0 0 0 0 0 0 0 0 -0 -0 -0
0 0 0 0 0 0 0 0 0 0 0 0 0 0 0 0 -0 -0 0 0 0 0 0 0 0 0 0 0 0 0 0 0 0 0 0 0 0 0 0 0 0 -0 -0
0 0 0 0 0 0 0 0 -0 0 0 0 0 0 0 0 0 0 0 0 0 0 0 0 0 0 0 0 0 0 0 0 0 0 0 0 0 0 0 0 0 -0 -0
0 0 0 0 0 0 0 0 0 -0 -0 -0 -0 -0 0 -0 -0 0 0 0 0 0 0 0 0 0 0 0 0 0 0 0 0 0 0 0 0 0 0 0 0 -0 0
0 0 0 0 0 0 0 0 0 -0 -0 -0 0 0 0 -0 -0 0 0 0 0 0 0 0 0 0 0 0 0 0 0 0 0 0 0 0 0 0 0 0 0 0 -0
0 0 0 0 0 0 0 0 0 0 -0 -0 0 0 0 0 -0 -0 0 0 0 0 0 0 0 0 0 0 0 0 0 0 0 0 0 0 0 0 0 0 0 0 -0
0 0 0 0 0 0 0 0 0 0 0 0 0 0 -0 0 -0 -0 0 0 0 0 0 0 0 0 0 0 0 0 0 0 0 0 0 0 0 0 0 0 -0 -0 -0
Wind_Speed_500mb
81 73 63 64 49 46 44 40 36 35 34 32 28 27 25 22 20 19 16 15 17 19 28 29 32 31 29 29 25 21 24 26 22 32 38 29 32 32 28 35 29 26 21
80 74 72 68 57 47 44 40 37 35 36 34 34 31 29 29 27 25 21 20 18 16 15 23 27 32 31 30 28 25 21 27 23 30 35 30 27 30 19 31 27 23 18
64 64 71 68 64 50 46 40 36 36 37 38 32 35 32 31 34 35 28 28 24 22 21 20 22 28 34 33 30 24 23 28 27 26 35 30 27 24 24 24 24 19 20
47 49 59 63 58 51 45 39 34 32 38 36 35 37 38 40 38 40 36 34 32 26 24 23 29 29 34 31 30 27 23 31 31 33 33 30 28 24 27 21 19 18 21
37 41 45 49 49 46 42 35 30 31 30 35 42 45 45 41 40 42 42 38 33 29 24 26 24 27 33 29 26 26 23 33 34 37 33 30 26 29 25 18 17 18 19
34 34 35 38 40 40 39 31 26 27 30 34 37 41 41 38 36 38 40 44 43 35 28 27 25 19 27 28 25 27 26 35 37 38 34 28 28 31 28 21 22 23 20
30 30 30 25 33 35 30 26 28 29 31 30 33 29 32 32 32 31 30 28 34 33 34 30 27 24 20 24 20 22 28 34 37 36 35 35 33 34 30 25 28 27 38
30 30 30 20 28 30 27 33 30 29 28 26 18 20 11 11 20 27 29 29 29 30 30 34 33 28 28 23 15 17 28 32 39 38 38 39 35 31 28 29 32 31 34
30 30 27 23 25 25 27 26 28 27 25 24 22 14 7 6 2 9 23 29 29 30 30 32 36 37 31 25 14 14 24 30 31 38 32 35 35 35 32 32 32 38 40
31 33 24 26 25 24 25 23 26 23 21 22 22 24 23 11 5 5 5 18 30 27 28 29 33 40 40 32 22 17 18 26 30 32 34 35 25 45 38 39 42 35 30
32 31 28 25 24 25 26 26 24 21 21 23 22 20 23 26 19 6 2 4 18 27 26 29 31 32 35 35 29 24 19 23 29 30 33 28 33 40 37 37 40 37 30
32 33 29 27 24 27 27 25 23 22 21 22 22 22 19 21 24 17 8 5 8 14 26 29 32 28 28 31 29 27 20 26 31 35 29 41 47 43 38 36 43 36 29
31 28 28 29 29 28 28 25 22 19 19 17 15 15 18 20 19 20 13 7 7 11 21 26 29 30 28 27 24 29 25 22 33 32 35 42 49 60 41 46 40 35 42
23 24 26 28 28 27 26 23 19 17 16 14 14 14 14 17 18 17 13 8 10 9 22 22 28 30 30 31 29 29 32 29 33 36 38 42 52 50 33 47 38 44 40
25 22 26 26 25 25 24 20 17 16 16 15 13 14 19 24 19 24 13 9 15 10 13 18 18 28 33 33 33 29 32 35 37 40 46 42 43 36 35 42 53 49 42
22 23 23 23 24 25 22 18 18 17 13 11 13 15 14 18 23 26 19 18 15 14 10 17 18 17 26 30 33 34 34 33 40 44 42 50 39 42 51 56 51 50 43
20 20 20 23 24 22 20 18 17 14 9 10 12 14 15 16 18 26 25 22 18 17 16 19 18 15 17 21 26 31 41 43 45 45 48 55 45 52 52 57 57 47 46
21 19 21 21 21 21 20 16 13 11 9 10 11 12 12 17 17 20 21 22 15 20 14 28 21 17 19 29 31 34 42 43 44 39 42 51 44 63 54 55 46 46 36
20 19 20 20 21 20 17 11 9 10 8 8 9 10 12 15 26 22 17 18 16 22 20 12 22 20 21 26 32 34 44 46 43 48 38 42 65 59 61 49 47 43 33
21 24 26 25 21 14 13 7 7 7 7 6 6 4 10 15 25 26 22 17 23 23 25 18 19 20 27 23 35 56 53 50 57 70 68 68 62 61 49 49 43 37 31
26 24 26 22 19 16 9 7 8 8 10 8 7 9 12 11 19 20 20 23 30 29 29 23 23 27 25 28 49 63 70 66 67 75 69 64 63 56 52 44 41 33 29
26 24 25 21 17 15 11 5 7 8 11 9 10 13 11 13 15 15 18 22 30 31 33 31 34 32 22 43 63 71 76 82 83 70 70 66 55 54 51 47 39 33 25
28 26 22 18 12 12 8 3 8 11 9 7 14 15 12 13 16 18 21 25 23 22 28 33 32 40 43 38 66 79 82 86 71 68 71 69 56 50 48 40 36 29 23
27 25 21 17 14 11 7 3 9 11 8 9 11 13 16 20 20 16 16 19 26 25 24 23 30 38 38 36 53 78 80 72 69 66 61 60 53 45 39 35 32 26 21
25 29 22 17 12 11 7 9 9 8 9 9 5 3 9 16 30 25 18 23 26 28 25 21 23 41 39 41 60 63 67 71 74 65 55 51 52 40 37 34 30 25 22
23 25 19 13 12 10 13 11 14 10 8 6 5 4 2 12 19 22 17 23 45 35 33 33 34 45 42 39 55 59 68 78 73 60 52 32 40 39 28 33 30 26 22
Wind_Direction_500mb
249 244 238 240 253 249 248 253 254 257 259 255 265 264 268 272 274 273 266 265 276 268 240 236 232 231 231 229 232 233 232 227 226 219 209 219 212 195 193 210 218 223 251
256 249 241 241 247 250 247 253 254 257 259 251 262 268 270 264 268 261 258 258 259 269 251 237 238 233 233 233 238 242 238 219 219 216 210 203 195 198 205 210 218 224 233
261 256 245 242 245 244 242 255 251 259 261 254 260 265 266 263 258 258 250 255 257 258 265 260 247 235 232 235 247 248 232 218 209 193 212 202 199 212 212 206 212 228 221
265 256 244 239 241 239 242 247 247 262 268 256 264 267 260 260 253 257 251 241 244 250 259 263 251 244 233 232 235 239 233 212 210 197 204 203 208 221 204 207 217 219 230
259 244 235 231 233 235 239 228 247 266 268 264 263 266 269 265 258 253 251 247 239 237 246 256 254 252 223 217 230 232 224 210 206 202 209 211 203 192 195 206 216 214 198
243 227 221 217 224 220 216 229 253 271 270 268 267 269 270 267 261 255 252 247 239 236 241 245 249 237 214 217 231 231 223 208 204 203 198 202 199 195 197 201 197 193 189
218 205 208 208 209 210 218 233 250 261 270 272 271 274 271 263 256 248 245 241 234 234 236 237 234 226 215 211 224 224 214 206 204 202 197 199 205 201 197 193 191 183 183
199 199 196 191 207 208 217 236 255 267 266 267 259 272 282 263 245 239 238 235 231 227 227 229 223 219 211 212 216 213 206 207 207 203 203 203 202 203 194 189 184 184 191
195 196 196 199 200 207 225 238 259 261 258 257 256 220 240 247 200 238 235 233 225 226 224 223 219 217 214 211 204 205 201 204 207 210 202 203 200 193 188 183 181 183 182
192 191 196 196 205 215 228 255 257 255 249 247 250 235 229 223 240 209 252 231 220 219 215 218 221 220 219 218 218 218 210 209 205 206 202 201 203 212 190 180 184 189 186
188 191 193 197 222 228 248 256 260 252 244 239 235 235 229 229 237 240 166 170 203 212 214 218 216 214 213 216 216 217 217 208 203 200 203 202 201 209 179 178 188 185 175
191 194 204 218 232 238 248 254 249 242 245 241 237 236 231 230 237 226 220 145 167 191 203 209 210 208 206 206 210 212 210 203 194 200 194 190 199 191 195 189 193 174 174
194 206 216 226 229 242 246 239 233 241 243 237 237 237 235 234 236 227 226 238 167 184 195 200 205 205 202 200 206 198 195 188 193 191 185 183 175 183 188 191 187 175 167
201 205 213 222 233 236 227 218 232 232 222 213 222 228 230 221 223 213 248 203 179 183 198 203 206 206 207 209 207 202 204 203 194 187 186 182 178 187 188 187 171 167 164
201 207 223 229 224 214 206 215 220 209 207 227 238 247 237 200 228 225 233 217 220 200 185 207 204 206 212 213 207 207 210 203 191 185 181 182 190 191 187 176 170 168 164
210 219 220 211 203 196 202 212 204 203 221 234 247 248 231 221 218 218 197 229 227 220 184 187 198 203 204 207 206 208 206 199 187 183 188 179 186 196 184 174 169 174 157
213 204 198 189 184 191 200 191 190 201 205 239 241 245 223 208 205 202 211 226 225 197 178 171 171 164 177 185 188 192 186 185 181 186 192 190 184 196 181 179 180 175 165
181 182 180 180 185 186 180 181 194 204 229 235 241 248 232 212 205 210 218 213 222 195 201 159 166 143 157 166 170 175 173 176 175 181 175 183 175 189 175 173 172 161 156
173 172 173 173 169 162 161 175 190 217 239 233 249 251 225 217 207 206 198 198 206 185 170 191 156 146 156 156 170 168 165 165 167 166 169 181 182 169 168 163 159 158 160
164 157 149 145 150 164 180 190 197 204 206 195 198 233 209 201 197 200 198 188 167 167 172 178 169 142 137 153 177 167 163 167 177 176 178 173 160 164 162 159 160 170 165
159 157 155 151 164 169 187 188 171 187 176 176 172 145 108 129 180 193 197 187 176 171 170 177 163 149 151 162 176 169 165 166 170 170 157 158 161 162 163 165 165 170 175
162 164 163 166 178 177 151 148 162 166 171 197 198 169 154 146 131 153 170 178 191 189 197 184 169 157 160 172 164 174 174 165 143 151 150 155 167 168 162 170 179 182 190
169 166 159 162 165 157 164 142 172 177 174 161 177 179 190 157 162 158 151 160 171 182 204 187 179 170 155 161 168 163 167 165 162 165 162 162 172 174 176 180 180 184 195
182 180 167 171 169 190 194 195 176 188 193 166 165 183 200 214 216 182 172 166 165 164 178 193 189 161 152 156 173 169 162 158 155 163 170 158 168 180 183 180 183 193 210
187 182 177 171 187 198 192 183 153 151 146 143 145 176 194 199 200 204 207 201 181 170 171 173 178 165 160 156 160 158 160 158 157 164 172 171 178 185 185 188 198 209 223
170 169 176 187 204 219 198 175 153 168 171 174 172 163 61 154 172 196 198 193 190 182 171 162 154 169 170 175 181 177 164 161 161 171 180 179 183 173 191 204 210 221 232
Wind_Speed_850mb
81 73 63 64 49 46 44 40 36 35 34 32 28 27 25 22 20 19 16 15 17 19 28 29 32 31 29 29 25 21 24 26 22 32 38 29 32 32 28 35 29 26 21
80 74 72 68 57 47 44 40 37 35 36 34 34 31 29 29 27 25 21 20 18 16 15 23 27 32 31 30 28 25 21 27 23 30 35 30 27 30 19 31 27 23 18
64 64 71 68 64 50 46 40 36 36 37 38 32 35 32 31 34 35 28 28 24 22 21 20 22 28 34 33 30 24 23 28 27 26 35 30 27 24 24 24 24 19 20
47 49 59 63 58 51 45 39 34 32 38 36 35 37 38 40 38 40 36 34 32 26 24 23 29 29 34 31 30 27 23 31 31 33 33 30 28 24 27 21 19 18 21
37 41 45 49 49 46 42 35 30 31 30 35 42 45 45 41 40 42 42 38 33 29 24 26 24 27 33 29 26 26 23 33 34 37 33 30 26 29 25 18 17 18 19
34 34 35 38 40 40 39 31 26 27 30 34 37 41 41 38 36 38 40 44 43 35 28 27 25 19 27 28 25 27 26 35 37 38 34 28 28 31 28 21 22 23 20
30 30 30 25 33 35 30 26 28 29 31 30 33 29 32 32 32 31 30 28 34 33 34 30 27 24 20 24 20 22 28 34 37 36 35 35 33 34 30 25 28 27 38
30 30 30 20 28 30 27 33 30 29 28 26 18 20 11 11 20 27 29 29 29 30 30 34 33 28 28 23 15 17 28 32 39 38 38 39 35 31 28 29 32 31 34
30 30 27 23 25 25 27 26 28 27 25 24 22 14 7 6 2 9 23 29 29 30 30 32 36 37 31 25 14 14 24 30 31 38 32 35 35 35 32 32 32 38 40
31 33 24 26 25 24 25 23 26 23 21 22 22 24 23 11 5 5 5 18 30 27 28 29 33 40 40 32 22 17 18 26 30 32 34 35 25 45 38 39 42 35 30
32 31 28 25 24 25 26 26 24 21 21 23 22 20 23 26 19 6 2 4 18 27 26 29 31 32 35 35 29 24 19 23 29 30 33 28 33 40 37 37 40 37 30
32 33 29 27 24 27 27 25 23 22 21 22 22 22 19 21 24 17 8 5 8 14 26 29 32 28 28 31 29 27 20 26 31 35 29 41 47 43 38 36 43 36 29
31 28 28 29 29 28 28 25 22 19 19 17 15 15 18 20 19 20 13 7 7 11 21 26 29 30 28 27 24 29 25 22 33 32 35 42 49 60 41 46 40 35 42
23 24 26 28 28 27 26 23 19 17 16 14 14 14 14 17 18 17 13 8 10 9 22 22 28 30 30 31 29 29 32 29 33 36 38 42 52 50 33 47 38 44 40
25 22 26 26 25 25 24 20 17 16 16 15 13 14 19 24 19 24 13 9 15 10 13 18 18 28 33 33 33 29 32 35 37 40 46 42 43 36 35 42 53 49 42
22 23 23 23 24 25 22 18 18 17 13 11 13 15 14 18 23 26 19 18 15 14 10 17 18 17 26 30 33 34 34 33 40 44 42 50 39 42 51 56 51 50 43
20 20 20 23 24 22 20 18 17 14 9 10 12 14 15 16 18 26 25 22 18 17 16 19 18 15 17 21 26 31 41 43 45 45 48 55 45 52 52 57 57 47 46
21 19 21 21 21 21 20 16 13 11 9 10 11 12 12 17 17 20 21 22 15 20 14 28 21 17 19 29 31 34 42 43 44 39 42 51 44 63 54 55 46 46 36
20 19 20 20 21 20 17 11 9 10 8 8 9 10 12 15 26 22 17 18 16 22 20 12 22 20 21 26 32 34 44 46 43 48 38 42 65 59 61 49 47 43 33
21 24 26 25 21 14 13 7 7 7 7 6 6 4 10 15 25 26 22 17 23 23 25 18 19 20 27 23 35 56 53 50 57 70 68 68 62 61 49 49 43 37 31
26 24 26 22 19 16 9 7 8 8 10 8 7 9 12 11 19 20 20 23 30 29 29 23 23 27 25 28 49 63 70 66 67 75 69 64 63 56 52 44 41 33 29
26 24 25 21 17 15 11 5 7 8 11 9 10 13 11 13 15 15 18 22 30 31 33 31 34 32 22 43 63 71 76 82 83 70 70 66 55 54 51 47 39 33 25
28 26 22 18 12 12 8 3 8 11 9 7 14 15 12 13 16 18 21 25 23 22 28 33 32 40 43 38 66 79 82 86 71 68 71 69 56 50 48 40 36 29 23
27 25 21 17 14 11 7 3 9 11 8 9 11 13 16 20 20 16 16 19 26 25 24 23 30 38 38 36 53 78 80 72 69 66 61 60 53 45 39 35 32 26 21
25 29 22 17 12 11 7 9 9 8 9 9 5 3 9 16 30 25 18 23 26 28 25 21 23 41 39 41 60 63 67 71 74 65 55 51 52 40 37 34 30 25 22
23 25 19 13 12 10 13 11 14 10 8 6 5 4 2 12 19 22 17 23 45 35 33 33 34 45 42 39 55 59 68 78 73 60 52 32 40 39 28 33 30 26 22
Wind_Direction_850mb
249 244 238 240 253 249 248 253 254 257 259 255 265 264 268 272 274 273 266 265 276 268 240 236 232 231 231 229 232 233 232 227 226 219 209 219 212 195 193 210 218 223 251
256 249 241 241 247 250 247 253 254 257 259 251 262 268 270 264 268 261 258 258 259 269 251 237 238 233 233 233 238 242 238 219 219 216 210 203 195 198 205 210 218 224 233
261 256 245 242 245 244 242 255 251 259 261 254 260 265 266 263 258 258 250 255 257 258 265 260 247 235 232 235 247 248 232 218 209 193 212 202 199 212 212 206 212 228 221
265 256 244 239 241 239 242 247 247 262 268 256 264 267 260 260 253 257 251 241 244 250 259 263 251 244 233 232 235 239 233 212 210 197 204 203 208 221 204 207 217 219 230
259 244 235 231 233 235 239 228 247 266 268 264 263 266 269 265 258 253 251 247 239 237 246 256 254 252 223 217 230 232 224 210 206 202 209 211 203 192 195 206 216 214 198
243 227 221 217 224 220 216 229 253 271 270 268 267 269 270 267 261 255 252 247 239 236 241 245 249 237 214 217 231 231 223 208 204 203 198 202 199 195 197 201 197 193 189
218 205 208 208 209 210 218 233 250 261 270 272 271 274 271 263 256 248 245 241 234 234 236 237 234 226 215 211 224 224 214 206 204 202 197 199 205 201 197 193 191 183 183
199 199 196 191 207 208 217 236 255 267 266 267 259 272 282 263 245 239 238 235 231 227 227 229 223 219 211 212 216 213 206 207 207 203 203 203 202 203 194 189 184 184 191
195 196 196 199 200 207 225 238 259 261 258 257 256 220 240 247 200 238 235 233 225 226 224 223 219 217 214 211 204 205 201 204 207 210 202 203 200 193 188 183 181 183 182
192 191 196 196 205 215 228 255 257 255 249 247 250 235 229 223 240 209 252 231 220 219 215 218 221 220 219 218 218 218 210 209 205 206 202 201 203 212 190 180 184 189 186
188 191 193 197 222 228 248 256 260 252 244 239 235 235 229 229 237 240 166 170 203 212 214 218 216 214 213 216 216 217 217 208 203 200 203 202 201 209 179 178 188 185 175
191 194 204 218 232 238 248 254 249 242 245 241 237 236 231 230 237 226 220 145 167 191 203 209 210 208 206 206 210 212 210 203 194 200 194 190 199 191 195 189 193 174 174
194 206 216 226 229 242 246 239 233 241 243 237 237 237 235 234 236 227 226 238 167 184 195 200 205 205 202 200 206 198 195 188 193 191 185 183 175 183 188 191 187 175 167
201 205 213 222 233 236 227 218 232 232 222 213 222 228 230 221 223 213 248 203 179 183 198 203 206 206 207 209 207 202 204 203 194 187 186 182 178 187 188 187 171 167 164
201 207 223 229 224 214 206 215 220 209 207 227 238 247 237 200 228 225 233 217 220 200 185 207 204 206 212 213 207 207 210 203 191 185 181 182 190 191 187 176 170 168 164
210 219 220 211 203 196 202 212 204 203 221 234 247 248 231 221 218 218 197 229 227 220 184 187 198 203 204 207 206 208 206 199 187 183 188 179 186 196 184 174 169 174 157
213 204 198 189 184 191 200 191 190 201 205 239 241 245 223 208 205 202 211 226 225 197 178 171 171 164 177 185 188 192 186 185 181 186 192 190 184 196 181 179 180 175 165
181 182 180 180 185 186 180 181 194 204 229 235 241 248 232 212 205 210 218 213 222 195 201 159 166 143 157 166 170 175 173 176 175 181 175 183 175 189 175 173 172 161 156
173 172 173 173 169 162 161 175 190 217 239 233 249 251 225 217 207 206 198 198 206 185 170 191 156 146 156 156 170 168 165 165 167 166 169 181 182 169 168 163 159 158 160
164 157 149 145 150 164 180 190 197 204 206 195 198 233 209 201 197 200 198 188 167 167 172 178 169 142 137 153 177 167 163 167 177 176 178 173 160 164 162 159 160 170 165
159 157 155 151 164 169 187 188 171 187 176 176 172 145 108 129 180 193 197 187 176 171 170 177 163 149 151 162 176 169 165 166 170 170 157 158 161 162 163 165 165 170 175
162 164 163 166 178 177 151 148 162 166 171 197 198 169 154 146 131 153 170 178 191 189 197 184 169 157 160 172 164 174 174 165 143 151 150 155 167 168 162 170 179 182 190
169 166 159 162 165 157 164 142 172 177 174 161 177 179 190 157 162 158 151 160 171 182 204 187 179 170 155 161 168 163 167 165 162 165 162 162 172 174 176 180 180 184 195
182 180 167 171 169 190 194 195 176 188 193 166 165 183 200 214 216 182 172 166 165 164 178 193 189 161 152 156 173 169 162 158 155 163 170 158 168 180 183 180 183 193 210
187 182 177 171 187 198 192 183 153 151 146 143 145 176 194 199 200 204 207 201 181 170 171 173 178 165 160 156 160 158 160 158 157 164 172 171 178 185 185 188 198 209 223
170 169 176 187 204 219 198 175 153 168 171 174 172 163 61 154 172 196 198 193 190 182 171 162 154 169 170 175 181 177 164 161 161 171 180 179 183 173 191 204 210 221 232